Newark, NJ

9:29 PM EDT on October 14, 2019 (GMT -0400)
Newark International

Weather History for KEWR - May, 2019

Change the Weather History Date:

Wednesday, May 15, 2019

  Actual Average Record
Temperature  
Mean Temperature 58 °F 62 °F  
Max Temperature 72 °F 72 °F 92 °F (2018)
Min Temperature 45 °F 53 °F 40 °F (1939)
Degree Days  
Heating Degree Days 6 4  
Month to date heating degree days 103 89  
Since 1 July heating degree days 4697 4809  
Cooling Degree Days 0 2  
Month to date cooling degree days 2 17  
Year to date cooling degree days 17 29  
Growing Degree Days 8 (Base 50)    
Moisture  
Dew Point 41 °F    
Average Humidity 56    
Maximum Humidity 89    
Minimum Humidity 31    
Precipitation  
Precipitation 0.01 in 0.13 in 0.76 in (1981)
Month to date precipitation 4.61 1.86  
Year to date precipitation 20.26 16.66  
Snow  
Snow 0.00 in 0.00 in 0.00 in (2002)
Month to date snowfall 0.0 0.0  
Since 1 July snowfall 22.0 28.5  
Snow Depth 0.00 in    
Sea Level Pressure  
Sea Level Pressure 29.84 in    
Wind  
Wind Speed 9 mph ()    
Max Wind Speed 21 mph    
Max Gust Speed 27 mph    
Visibility 10.0 miles    
Events Rain    
T = Trace of Precipitation, MM = Missing Value Source: Averaged Metar Reports

Daily Weather History Graph

Daily Weather History Graph

Search for Another Location

Airport or City:

Astronomy

May. 15, 2019 Rise Set
Actual Time 5:39 AM EDT 8:06 PM EDT
Civil Twilight 5:08 AM EDT 8:37 PM EDT
Nautical Twilight 4:30 AM EDT 9:16 PM EDT
Astronomical Twilight 3:47 AM EDT 9:59 PM EDT
Moon 4:32 PM EDT 4:06 AM EDT
Length of Visible Light 15h 28m
Length of Day
14h 26m
Waxing Gibbous, 87% of the Moon is Illuminated
May 15
Waxing Gibbous
May 18
Full
May 26
Last Quarter
Jun 3
New
Jun 10
First Quarter

Hourly Weather History & Observations

Time (EDT) Temp. Windchill Dew Point Humidity Pressure Visibility Wind Dir Wind Speed Gust Speed Precip Events Conditions
12:13 AM 48.0 °F - 42.1 °F 80% 29.84 in 10.0 mi NW 11.5 mph - N/A   Overcast
12:51 AM 46.9 °F - 43.0 °F 86% 29.84 in 10.0 mi NNW 13.8 mph 21.9 mph 0.00 in Rain Light Rain
1:51 AM 46.9 °F - 43.0 °F 86% 29.84 in 10.0 mi NNW 6.9 mph - 0.00 in Rain Light Rain
2:51 AM 46.9 °F - 42.1 °F 83% 29.85 in 10.0 mi NW 6.9 mph - 0.00 in   Mostly Cloudy
3:51 AM 46.0 °F 43.9 °F 41.0 °F 83% 29.85 in 10.0 mi West 4.6 mph - N/A   Mostly Cloudy
4:51 AM 45.0 °F 41.8 °F 41.0 °F 86% 29.86 in 10.0 mi WNW 5.8 mph - N/A   Scattered Clouds
5:51 AM 45.0 °F 41.2 °F 39.9 °F 82% 29.86 in 10.0 mi WNW 6.9 mph - N/A   Partly Cloudy
6:51 AM 46.9 °F - 39.9 °F 77% 29.87 in 10.0 mi West 9.2 mph - N/A   Partly Cloudy
7:51 AM 51.1 °F - 41.0 °F 68% 29.88 in 10.0 mi NW 12.7 mph - N/A   Partly Cloudy
8:51 AM 53.1 °F - 39.9 °F 61% 29.88 in 10.0 mi NW 9.2 mph - N/A   Scattered Clouds
9:51 AM 57.0 °F - 39.0 °F 51% 29.89 in 10.0 mi NNW 15.0 mph 25.3 mph N/A   Scattered Clouds
10:51 AM 59.0 °F - 39.9 °F 49% 29.88 in 10.0 mi WNW 10.4 mph 20.7 mph N/A   Scattered Clouds
11:51 AM 62.1 °F - 41.0 °F 46% 29.87 in 10.0 mi NW 10.4 mph - N/A   Scattered Clouds
12:51 PM 66.0 °F - 41.0 °F 40% 29.84 in 10.0 mi NW 20.7 mph 25.3 mph N/A   Scattered Clouds
1:51 PM 68.0 °F - 39.9 °F 36% 29.82 in 10.0 mi WNW 12.7 mph 24.2 mph N/A   Scattered Clouds
2:51 PM 71.1 °F - 39.9 °F 32% 29.80 in 10.0 mi West 16.1 mph 20.7 mph N/A   Scattered Clouds
3:51 PM 71.1 °F - 39.0 °F 31% 29.79 in 10.0 mi NW 13.8 mph 18.4 mph N/A   Mostly Cloudy
4:51 PM 70.0 °F - 39.9 °F 33% 29.79 in 10.0 mi NW 10.4 mph - N/A   Mostly Cloudy
5:51 PM 71.1 °F - 39.9 °F 32% 29.79 in 10.0 mi West 12.7 mph 18.4 mph N/A   Scattered Clouds
6:51 PM 71.1 °F - 39.9 °F 32% 29.79 in 10.0 mi WNW 11.5 mph - N/A   Mostly Cloudy
7:51 PM 68.0 °F - 42.1 °F 39% 29.81 in 10.0 mi West 12.7 mph - N/A   Mostly Cloudy
8:51 PM 66.0 °F - 43.0 °F 43% 29.82 in 10.0 mi West 9.2 mph - N/A   Mostly Cloudy
9:51 PM 64.9 °F - 43.0 °F 45% 29.83 in 10.0 mi West 9.2 mph - N/A   Mostly Cloudy
10:51 PM 64.0 °F - 44.1 °F 48% 29.83 in 10.0 mi WSW 10.4 mph - N/A   Mostly Cloudy
11:51 PM 63.0 °F - 44.1 °F 50% 29.83 in 10.0 mi WSW 9.2 mph - N/A   Overcast